Location: Stillwell
(40.4602°N, 82.0928°W)
Time: 19:46:54
(UTC-05:00)

Daily predictions for brighter satellites

Satellite Brightness Start Highest point End
(mag) Time Altitude Azimuth Time Altitude Azimuth Time Altitude Azimuth
Cosmos 1709 Rocket 4.0 18:37:18 10° S 18:43:27 70° E 18:49:35 10° NNE
METEOR-M 4.2 18:40:27 10° SSE 18:45:39 55° ENE 18:50:52 10° N
ASTRO F (AKARI) 4.4 18:43:16 10° NNE 18:46:43 60° ESE 18:49:58 10° S
Cosmos 1025 Rocket 4.1 18:44:37 10° NNE 18:48:11 24° ENE 18:51:43 10° SE
Cosmos 1484 Rocket 4.0 18:44:32 10° S 18:48:20 48° W 18:52:08 10° NNW
Cosmos 2151 Rocket 4.2 18:44:27 10° SSW 18:48:56 65° W 18:53:27 10° N
OTV 4 2.7 18:47:23 10° S 18:49:03 14° SSE 18:50:44 10° ESE
Cosmos 2322 3.7 18:51:31 10° NNW 18:57:17 88° ENE 19:02:58 10° SSE
Hubble Space Telescope 3.1 18:58:43 10° SSW 19:00:21 12° SSE 19:02:00 10° SE
BREEZE-M DEB (TANK) 3.0 18:58:42 10° SW 19:03:23 44° SSE 19:05:21 15° ENE
Cosmos 1850 Rocket 4.0 19:00:24 10° S 19:05:40 71° ESE 19:11:01 10° NNE
CZ-3C R/B 4.0 19:02:35 10° SW 19:06:56 13° SSW 19:09:37 10° S
Cosmos 2208 Rocket 4.1 19:01:35 10° NNW 19:06:59 60° ENE 19:12:17 10° SSE
Meteor 1-19 Rocket 4.3 19:02:01 10° N 19:07:45 84° E 19:13:33 10° S
SJ-6B 2.7 19:05:08 10° SSE 19:09:05 66° ENE 19:12:57 10° N
Cosmos 405 Rocket 4.1 19:07:50 10° NNE 19:10:58 21° ENE 19:13:12 14° ESE
Cosmos 2237 Rocket 3.4 19:07:12 10° N 19:11:37 22° NE 19:14:36 15° E
ALOS 2.4 19:08:14 10° SSE 19:12:45 51° ENE 19:17:16 10° N
Cosmos 2297 Rocket 3.6 19:10:44 10° SE 19:13:53 15° E 19:14:23 15° E
HJ-1C 3.7 19:10:44 10° SSE 19:13:57 43° ENE 19:17:10 10° N
Cosmos 2333 4.3 19:08:35 10° NNW 19:14:14 56° ENE 19:19:53 10° SE
H-2A R/B 3.4 19:12:34 10° SE 19:15:52 31° ENE 19:19:12 10° N
Cosmos 2237 4.2 19:10:11 10° NNW 19:15:57 84° ENE 19:21:40 10° SSE
COSMOS 2428 2.7 19:10:25 10° NNW 19:16:06 66° ENE 19:21:45 10° SSE
CZ-2D R/B 4.3 19:14:14 14° ESE 19:16:38 24° ENE 19:19:44 10° NNE
Okean 1-7 Rocket 3.5 19:14:34 10° N 19:19:06 69° E 19:23:32 10° SSE
Meteor 2-4 Rocket 3.6 19:16:16 10° N 19:21:47 79° E 19:27:10 10° SSE
Gbstr 26 Del rocket 3.7 19:18:45 10° W 19:22:23 40° NNW 19:25:41 12° NE
Cosmos 2285 Rocket 4.1 19:16:40 10° N 19:23:00 54° ENE 19:29:14 10° SE
Cosmos 2219 Rocket 2.5 19:18:53 10° N 19:24:13 43° ENE 19:28:57 13° SE
Cosmos 2360 Rocket 3.3 19:18:55 10° NW 19:24:21 48° WSW 19:29:45 10° S
Meteor 1-23 Rocket 4.2 19:21:44 10° N 19:27:33 72° E 19:33:15 10° SSE
Okean 2 3.7 19:24:42 10° N 19:28:41 42° ENE 19:32:40 10° SSE
Cosmos 2219 3.3 19:26:11 10° SSW 19:31:56 83° WNW 19:37:43 10° NNE
FREGAT/IRIS 3.7 19:29:53 10° S 19:32:52 47° W 19:35:53 10° NNW
Atlas Centaur 2 4.2 19:29:06 10° SSW 19:33:10 16° SSE 19:35:47 13° SE
Cosmos 2227 Rocket 2.9 19:29:07 10° SSE 19:34:00 31° ESE 19:38:28 12° NE
Helios 1A 3.7 19:33:28 26° ESE 19:34:49 32° ENE 19:38:32 10° N
Abrixas rocket 2.8 19:32:13 10° WSW 19:35:31 54° NNW 19:37:11 25° NE
Helios 1B rocket 3.2 19:31:59 10° NE 19:35:40 30° E 19:39:19 10° SSE
Cosmos 1536 3.5 19:35:32 10° SSW 19:39:26 55° W 19:43:22 10° N
SAR-Lupe-4 3.7 19:44:54 42° ESE 19:45:29 47° ENE 19:48:56 10° N
Cosmos 1455 Rocket 3.5 19:42:16 10° SSE 19:46:18 37° E 19:50:19 10° NNE
SL-16 R/B 3.6 19:43:20 10° N 19:47:21 19° NE 19:47:22 19° NE
Cosmos 1763 Rocket 4.0 19:52:39 10° N 19:57:23 35° ENE 19:57:29 35° ENE
Resurs 01 Rocket 1.9 19:55:04 10° S 19:59:27 68° WSW 20:03:51 10° NNW
Cosmos 1610 Rocket 4.4 19:59:27 10° S 20:05:41 90° E 20:11:53 10° N
ATLAS 2A CENTAUR R/B 4.4 20:06:31 10° SSW 20:08:39 12° SSE 20:10:06 12° SSE
Resurs 1-3 4.0 20:05:32 10° S 20:09:52 62° W 20:14:14 10° NNW
Cosmos 2333 Rocket 2.1 20:04:29 10° NNW 20:10:16 82° ENE 20:12:59 33° SSE
Cosmos 1980 3.6 20:05:39 10° NNW 20:11:17 67° ENE 20:12:50 47° SE
GEOS 3 Rocket 3.6 20:08:20 18° NE 20:12:18 87° NW 20:17:36 10° SW
GPS 2-04 Rocket1 3.5 20:10:09 10° WSW 20:14:12 44° S 20:14:12 44° S
Cosmos 1892 Rocket 4.1 20:19:17 10° NNW 20:23:34 58° W 20:26:07 23° SSW
OTV 4 3.2 20:21:52 10° WSW 20:22:38 16° SW 20:22:38 16° SW
Cosmos 468 Rocket 4.3 20:21:08 10° NNW 20:26:20 66° WSW 20:28:51 31° S
USA 229 DEB 4.4 20:22:54 10° NW 20:29:49 53° WSW 20:35:24 17° S
USA 229 4.4 20:22:59 10° NW 20:29:55 54° WSW 20:35:26 17° S
Cosmos 1295 Rocket 4.3 20:33:35 66° E 20:33:40 66° E 20:39:54 10° NNE
Cosmos 2082 3.6 20:30:23 10° SSW 20:36:07 89° W 20:37:59 45° NNE
Hubble Space Telescope 3.4 20:38:22 10° SW 20:38:56 12° SSW 20:38:56 12° SSW
ERS-1 Rocket 4.5 20:45:10 26° N 20:45:10 26° N 20:47:25 10° N
NOSS 3-1 (A) 4.0 20:35:06 10° NNW 20:42:44 71° NE 20:44:07 60° ESE
Envisat 3.3 20:47:02 58° NNW 20:47:02 58° NNW 20:51:08 10° NNW
Cosmos 1814 Rocket 4.5 20:42:21 10° NNW 20:47:23 56° WSW 20:47:53 53° SW
ATLAS 2AS CENTAUR R/B 4.0 20:41:10 10° NNW 20:48:05 30° NE 20:48:06 30° NE
USA 32 4.4 20:49:38 10° N 20:54:07 59° NW 20:54:07 59° NW
Cosmos 2237 Rocket 2.6 20:50:29 10° NNW 20:56:04 57° WSW 20:56:29 56° SW
Cosmos 2297 Rocket 2.5 20:51:37 10° SSW 20:56:25 61° WSW 20:56:25 61° WSW
NOSS 3-1 (C) 4.1 20:52:54 10° NW 21:00:35 77° WSW 21:02:16 59° S
Cosmos 2219 Rocket 4.1 21:03:20 10° NW 21:07:53 26° WSW 21:10:47 17° SW
H-2A R/B 4.4 21:03:39 10° SSW 21:42:32 13° E 21:54:05 10° E
H-2A R/B 4.4 21:03:39 10° SSW 21:42:31 13° E 21:54:05 10° E
H-2A R/B 4.4 21:03:39 10° SSW 21:42:30 13° E 21:54:05 10° E
Cosmos 2227 Rocket 3.5 21:12:43 10° SW 21:17:56 37° WNW 21:20:37 24° N
Atlas Centaur 2 4.4 21:16:20 10° SW 21:18:27 17° SSW 21:18:27 17° SSW
SL-16 R/B 3.7 21:26:21 10° NNW 21:29:17 31° NW 21:29:17 31° NW
